| time (UTC) | temp F | wind direction | speed knots | gust knots | rain 1hr in | rain 24hr in | rain mn in | humidity % | barometer mb |
| 20260508013008 | 70 | 91 | 0.0 | 2.6 | 0.00 | 0.00 | 0.00 | 43 | 1015.7 |
| 20260508011506 | 70 | 91 | 0.0 | 1.7 | 0.00 | 0.00 | 0.00 | 42 | 1015.9 |
| 20260508010008 | 70 | 91 | 0.0 | 1.7 | 0.00 | 0.00 | 0.00 | 42 | 1015.9 |
| 20260508004505 | 70 | 92 | 0.0 | 5.2 | 0.00 | 0.00 | 0.00 | 44 | 1015.9 |
| 20260508003004 | 70 | 85 | 0.9 | 4.3 | 0.00 | 0.00 | 0.00 | 42 | 1016.1 |
| 20260508001502 | 70 | 76 | 0.9 | 5.2 | 0.00 | 0.00 | 0.00 | 42 | 1016.2 |
| 20260508000002 | 71 | 117 | 0.0 | 2.6 | 0.00 | 0.00 | 0.00 | 40 | 1016.2 |
| 20260507234559 | 71 | 121 | 0.0 | 2.6 | 0.00 | 0.00 | 0.00 | 41 | 1016.3 |
| 20260507233057 | 71 | 355 | 0.0 | 4.3 | 0.00 | 0.00 | 0.00 | 45 | 1016.5 |
| 20260507231556 | 71 | 300 | 0.9 | 3.5 | 0.00 | 0.00 | 0.00 | 47 | 1016.7 |
| 20260507230107 | 69 | 41 | 0.0 | 3.5 | 0.00 | 0.00 | 0.00 | 46 | 1016.9 |
| 20260507224549 | 69 | 196 | 0.9 | 6.1 | 0.00 | 0.00 | 0.00 | 46 | 1017.1 |
| 20260507223133 | 69 | 330 | 0.9 | 4.3 | 0.00 | 0.00 | 0.00 | 47 | 1017.3 |
| 20260507221545 | 69 | 188 | 0.0 | 6.1 | 0.00 | 0.00 | 0.00 | 49 | 1017.3 |
| 20260507220042 | 68 | 295 | 1.7 | 4.3 | 0.00 | 0.00 | 0.00 | 51 | 1017.6 |
| 20260507214551 | 68 | 76 | 0.0 | 5.2 | 0.00 | 0.00 | 0.00 | 50 | 1017.7 |
| 20260507213038 | 68 | 281 | 0.0 | 3.5 | 0.00 | 0.00 | 0.00 | 51 | 1017.9 |
| 20260507211536 | 67 | 294 | 0.9 | 3.5 | 0.00 | 0.00 | 0.00 | 54 | 1018.1 |
| 20260507210040 | 66 | 45 | 1.7 | 6.1 | 0.00 | 0.00 | 0.00 | 56 | 1018.3 |
| 20260507204533 | 65 | 130 | 0.9 | 6.1 | 0.00 | 0.00 | 0.00 | 53 | 1018.5 |
| 20260507203034 | 64 | 269 | 2.6 | 7.8 | 0.00 | 0.00 | 0.00 | 55 | 1018.7 |
| 20260507201523 | 64 | 233 | 0.0 | 3.5 | 0.00 | 0.00 | 0.00 | 55 | 1019.0 |
| 20260507200044 | 63 | 350 | 1.7 | 4.3 | 0.00 | 0.00 | 0.00 | 58 | 1019.0 |
| 20260507194518 | 62 | 94 | 1.7 | 5.2 | 0.00 | 0.00 | 0.00 | 59 | 1019.1 |
| 20260507193036 | 62 | 190 | 0.0 | 4.3 | 0.00 | 0.00 | 0.00 | 61 | 1019.3 |
| 20260507191512 | 62 | 57 | 0.9 | 4.3 | 0.00 | 0.00 | 0.00 | 60 | 1019.5 |
| 20260507190010 | 60 | 82 | 0.9 | 3.5 | 0.00 | 0.00 | 0.00 | 61 | 1019.6 |
| 20260507184511 | 59 | 300 | 0.9 | 5.2 | 0.00 | 0.00 | 0.00 | 62 | 1019.8 |
| 20260507183009 | 60 | 20 | 0.9 | 4.3 | 0.00 | 0.00 | 0.00 | 63 | 1019.8 |
| 20260507181506 | 60 | 82 | 0.9 | 4.3 | 0.00 | 0.00 | 0.00 | 63 | 1019.8 |
| 20260507180006 | 59 | 16 | 2.6 | 5.2 | 0.00 | 0.00 | 0.00 | 64 | 1020.0 |
| 20260507174504 | 59 | 80 | 0.9 | 4.3 | 0.00 | 0.00 | 0.00 | 64 | 1020.1 |
| 20260507173003 | 58 | 51 | 0.9 | 3.5 | 0.00 | 0.00 | 0.00 | 63 | 1020.1 |
| 20260507171604 | 57 | 82 | 0.0 | 4.3 | 0.00 | 0.00 | 0.00 | 64 | 1020.1 |
| 20260507170056 | 57 | 82 | 0.0 | 2.6 | 0.00 | 0.00 | 0.00 | 65 | 1020.1 |
| 20260507164556 | 56 | 38 | 0.9 | 2.6 | 0.00 | 0.00 | 0.00 | 65 | 1020.1 |
| 20260507163053 | 56 | 38 | 0.0 | 3.5 | 0.00 | 0.00 | 0.00 | 65 | 1020.1 |
| 20260507161601 | 55 | 65 | 0.9 | 3.5 | 0.00 | 0.00 | 0.00 | 64 | 1020.2 |
| 20260507160048 | 55 | 55 | 0.9 | 5.2 | 0.00 | 0.00 | 0.00 | 64 | 1020.3 |
| 20260507154545 | 54 | 32 | 0.0 | 3.5 | 0.00 | 0.00 | 0.00 | 64 | 1020.4 |
| 20260507153057 | 53 | 32 | 0.9 | 3.5 | 0.00 | 0.00 | 0.00 | 64 | 1020.4 |
| 20260507151541 | 53 | 49 | 0.0 | 2.6 | 0.00 | 0.00 | 0.00 | 63 | 1020.4 |
| 20260507150046 | 53 | 64 | 0.0 | 2.6 | 0.00 | 0.00 | 0.00 | 63 | 1020.4 |
| 20260507144539 | 52 | 304 | 0.0 | 2.6 | 0.00 | 0.00 | 0.00 | 62 | 1020.4 |
| 20260507143035 | 52 | 303 | 0.0 | 2.6 | 0.00 | 0.00 | 0.00 | 62 | 1020.3 |
| 20260507141534 | 52 | 243 | 0.0 | 1.7 | 0.00 | 0.00 | 0.00 | 59 | 1020.2 |
| 20260507140034 | 51 | 249 | 0.0 | 0.0 | 0.00 | 0.00 | 0.00 | 59 | 1020.0 |
| 20260507134532 | 51 | 249 | 0.0 | 1.7 | 0.00 | 0.00 | 0.00 | 58 | 1020.0 |
| 20260507133032 | 51 | 249 | 0.0 | 0.9 | 0.00 | 0.00 | 0.00 | 58 | 1020.0 |
| 20260507131533 | 51 | 249 | 0.0 | 1.7 | 0.00 | 0.00 | 0.00 | 58 | 1020.0 |
| 20260507130052 | 51 | 275 | 0.0 | 0.9 | 0.00 | 0.00 | 0.00 | 54 | 1020.2 |
| 20260507124529 | 51 | 275 | 0.0 | 0.9 | 0.00 | 0.00 | 0.00 | 49 | 1020.1 |
| 20260507123029 | 51 | 275 | 0.0 | 0.0 | 0.00 | 0.00 | 0.00 | 47 | 1020.1 |
| 20260507121527 | 51 | 275 | 0.0 | 0.0 | 0.00 | 0.00 | 0.00 | 48 | 1020.2 |
| 20260507120034 | 52 | 275 | 0.0 | 0.0 | 0.00 | 0.00 | 0.00 | 49 | 1020.4 |
| 20260507114524 | 51 | 275 | 0.0 | 1.7 | 0.00 | 0.00 | 0.00 | 50 | 1020.4 |
| 20260507113023 | 51 | 275 | 0.0 | 0.0 | 0.00 | 0.00 | 0.00 | 50 | 1020.5 |
| 20260507111521 | 52 | 275 | 0.0 | 0.0 | 0.00 | 0.00 | 0.00 | 52 | 1020.6 |
| 20260507110024 | 52 | 275 | 0.0 | 0.9 | 0.00 | 0.00 | 0.00 | 54 | 1020.6 |
| 20260507104519 | 52 | 275 | 0.0 | 1.7 | 0.00 | 0.00 | 0.00 | 55 | 1020.6 |
| 20260507103020 | 52 | 275 | 0.0 | 0.9 | 0.00 | 0.00 | 0.00 | 54 | 1020.7 |
| 20260507101518 | 52 | 275 | 0.0 | 1.7 | 0.00 | 0.00 | 0.00 | 55 | 1020.8 |
| 20260507100021 | 52 | 274 | 0.0 | 0.9 | 0.00 | 0.00 | 0.00 | 55 | 1020.9 |
| 20260507094512 | 52 | 274 | 0.0 | 1.7 | 0.00 | 0.00 | 0.00 | 55 | 1020.9 |
| 20260507093011 | 52 | 274 | 0.0 | 2.6 | 0.00 | 0.00 | 0.00 | 56 | 1021.1 |
| 20260507091509 | 52 | 273 | 0.0 | 0.0 | 0.00 | 0.00 | 0.00 | 55 | 1021.2 |
| 20260507090008 | 52 | 273 | 0.0 | 1.7 | 0.00 | 0.00 | 0.00 | 57 | 1021.3 |
| 20260507084507 | 52 | 273 | 0.0 | 1.7 | 0.00 | 0.00 | 0.00 | 56 | 1021.4 |
| 20260507083007 | 52 | 273 | 0.0 | 1.7 | 0.00 | 0.00 | 0.00 | 57 | 1021.2 |
| 20260507081505 | 51 | 273 | 0.0 | 1.7 | 0.00 | 0.00 | 0.00 | 57 | 1021.3 |
| 20260507080004 | 51 | 290 | 0.0 | 2.6 | 0.00 | 0.00 | 0.00 | 58 | 1021.3 |
| 20260507074505 | 51 | 283 | 0.0 | 2.6 | 0.00 | 0.00 | 0.00 | 58 | 1021.3 |
| 20260507073002 | 51 | 280 | 0.9 | 3.5 | 0.00 | 0.00 | 0.00 | 58 | 1021.4 |
| 20260507071600 | 51 | 271 | 0.0 | 2.6 | 0.00 | 0.00 | 0.00 | 58 | 1021.3 |
| 20260507071501 | 51 | 271 | 0.0 | 2.6 | 0.00 | 0.00 | 0.00 | 58 | 1021.3 |
| 20260507064554 | 51 | 271 | 0.0 | 2.6 | 0.00 | 0.00 | 0.00 | 59 | 1021.2 |
| 20260507063051 | 51 | 273 | 0.0 | 5.2 | 0.00 | 0.00 | 0.00 | 59 | 1021.2 |
| 20260507061545 | 51 | 278 | 0.0 | 3.5 | 0.00 | 0.00 | 0.00 | 58 | 1021.2 |
| 20260507060040 | 51 | 5 | 0.0 | 2.6 | 0.00 | 0.00 | 0.00 | 58 | 1021.3 |
| 20260507054541 | 51 | 312 | 0.0 | 5.2 | 0.00 | 0.00 | 0.00 | 60 | 1021.1 |
| 20260507053032 | 51 | 162 | 0.0 | 2.6 | 0.00 | 0.00 | 0.00 | 58 | 1021.2 |
| 20260507051527 | 51 | 83 | 0.0 | 1.7 | 0.00 | 0.00 | 0.00 | 59 | 1021.3 |
| 20260507050032 | 51 | 118 | 0.0 | 3.5 | 0.00 | 0.00 | 0.00 | 60 | 1021.2 |
| 20260507044523 | 52 | 211 | 0.0 | 2.6 | 0.00 | 0.00 | 0.00 | 61 | 1021.2 |
| 20260507043014 | 52 | 211 | 0.0 | 2.6 | 0.00 | 0.00 | 0.00 | 62 | 1021.0 |
| 20260507041523 | 53 | 271 | 0.9 | 5.2 | 0.00 | 0.00 | 0.00 | 64 | 1020.9 |
| 20260507040006 | 53 | 254 | 0.0 | 2.6 | 0.00 | 0.00 | 0.00 | 65 | 1020.6 |
| 20260507034501 | 54 | 252 | 0.9 | 3.5 | 0.00 | 0.00 | 0.00 | 67 | 1020.5 |
| 20260507033057 | 55 | 311 | 0.0 | 4.3 | 0.00 | 0.00 | 0.00 | 69 | 1020.2 |
| 20260507031553 | 56 | 290 | 0.0 | 2.6 | 0.00 | 0.00 | 0.00 | 69 | 1020.1 |
| 20260507030048 | 57 | 299 | 0.0 | 2.6 | 0.00 | 0.00 | 0.00 | 69 | 1019.9 |
| 20260507024556 | 58 | 286 | 0.0 | 6.1 | 0.00 | 0.00 | 0.00 | 69 | 1019.8 |
| 20260507023042 | 59 | 301 | 0.9 | 4.3 | 0.00 | 0.00 | 0.00 | 69 | 1019.8 |
| 20260507021536 | 61 | 277 | 0.9 | 5.2 | 0.00 | 0.00 | 0.00 | 67 | 1019.8 |
| 20260507020036 | 62 | 346 | 0.9 | 4.3 | 0.00 | 0.00 | 0.00 | 65 | 1019.8 |
| 20260507014539 | 63 | 74 | 0.0 | 4.3 | 0.00 | 0.00 | 0.00 | 65 | 1019.8 |